Queretaro Airport,

10:08 PM CST on February 23, 2018 (GMT -0600)
Queretaro Airport

Weather History for MMQT - November, 2012

Change the Weather History Date:

Saturday, November 10, 2012

  Actual Average Record
Temperature  
Mean Temperature 64 °F -  
Max Temperature 80 °F 71 °F 83 °F (2015)
Min Temperature 49 °F 46 °F 30 °F (2010)
Growing Degree Days 14 (Base 50)    
Moisture  
Dew Point 42 °F    
Average Humidity 57    
Maximum Humidity 93    
Minimum Humidity 13    
Precipitation  
Precipitation 0.00 in - - ()
Sea Level Pressure  
Sea Level Pressure 30.16 in    
Wind  
Wind Speed 3 mph ()    
Max Wind Speed 22 mph    
Max Gust Speed -    
Visibility 6.4 miles    
Events Fog    
Averages and records for this station are not official NWS values.
T = Trace of Precipitation, MM = Missing Value Source: Averaged Metar Reports

Daily Weather History Graph

Daily Weather History Graph

Search for Another Location

Airport or City:

Trip Planner

Search our weather history database for the weather conditions in past years. The results will help you decide how hot, cold, wet, or windy it might be!

Date:

Astronomy

Nov. 10, 2012 Rise Set
Actual Time 6:47 AM CST 6:01 PM CST
Civil Twilight 6:24 AM CST 6:24 PM CST
Nautical Twilight 5:58 AM CST 6:51 PM CST
Astronomical Twilight 5:31 AM CST 7:17 PM CST
Moon 3:20 AM CST (11/10) 3:28 PM CST (11/10)
Length of Visible Light 11h 59m
Length of Day
11h 13m
Waning Crescent, 14% of the Moon is Illuminated
Nov 10
Waning Crescent
Nov 13
New
Nov 20
First Quarter
Nov 28
Full
Dec 6
Last Quarter

Hourly Weather History & Observations

Time (CST) Temp. Windchill Dew Point Humidity Pressure Visibility Wind Dir Wind Speed Gust Speed Precip Events Conditions
12:45 AM 51.8 °F - 46.4 °F 82% - 7.0 mi Calm Calm - N/A   Clear
1:45 AM 50.0 °F - 41.0 °F 71% 30.32 in 7.0 mi NE 4.6 mph - N/A   Clear
2:40 AM 56 °F - 48 °F 66% 29.91 in 6 mi South 2.2 mph - -  
2:45 AM 46.4 °F 44.3 °F 35.6 °F 66% 30.30 in 7.0 mi NE 4.6 mph - N/A   Clear
3:45 AM 46.4 °F - 35.6 °F 66% 30.30 in 7.0 mi Calm Calm - N/A   Clear
4:45 AM 48.2 °F - 39.2 °F 71% 30.28 in 7.0 mi Calm Calm - N/A   Clear
5:45 AM 51 °F - 47 °F 83% 29.91 in 6 mi West 2.2 mph - -  
5:45 AM 41.0 °F - 35.6 °F 81% 30.29 in 7.0 mi Calm Calm - N/A   Clear
6:29 AM 41.0 °F - 37.4 °F 87% 30.29 in 3.0 mi Calm Calm - N/A   Scattered Clouds
6:45 AM 41.0 °F 37.1 °F 32.0 °F 70% 30.29 in 2.0 mi East 5.8 mph - N/A   Mostly Cloudy
7:02 AM 39.2 °F 35.0 °F 33.8 °F 81% 30.30 in 0.0 mi East 5.8 mph - N/A Fog Fog
7:45 AM 44.6 °F - 42.8 °F 93% 30.28 in 0.2 mi Calm Calm - N/A Fog Fog
8:40 AM 53 °F - 47 °F 75% 29.98 in 12 mi North 2.2 mph - -   Haze
8:45 AM 50.0 °F - 46.4 °F 87% 30.29 in 0.5 mi Calm Calm - N/A Fog Fog
9:45 AM 51.8 °F - 48.2 °F 88% 30.32 in 1.0 mi NW 5.8 mph - N/A   Overcast
10:15 AM 55.4 °F - 50.0 °F 82% 30.32 in 2.0 mi Calm Calm - N/A   Scattered Clouds
10:45 AM 62.6 °F - 50.0 °F 63% 30.32 in 4.0 mi West 5.8 mph - N/A   Scattered Clouds
11:40 AM 71 °F - 46 °F 29% 29.97 in 12 mi West 2.2 mph - -  
11:45 AM 71.6 °F - 46.4 °F 41% 30.32 in 5.0 mi West 9.2 mph - N/A   Clear
12:45 PM 75.2 °F - 41.0 °F 29% 30.25 in 7.0 mi SW 9.2 mph - N/A   Clear
1:45 PM 77.0 °F - 41.0 °F 28% 30.22 in 5.0 mi South 11.5 mph - N/A   Clear
2:45 PM 77.0 °F - 41.0 °F 28% 30.29 in 8.0 mi WSW 5.8 mph - N/A   Scattered Clouds
2:55 PM 80 °F - 38 °F 13% 29.78 in 16 mi WNW 4.5 mph - -   Scattered Clouds
3:50 PM 77.0 °F - 41.0 °F 28% 30.17 in 8.0 mi WSW 8.1 mph - N/A   Scattered Clouds
4:45 PM 77.0 °F - 41.0 °F 28% 30.16 in 8.0 mi WSW 6.9 mph - N/A   Scattered Clouds
5:45 PM 71.6 °F - 42.8 °F 35% 30.16 in 8.0 mi West 4.6 mph - N/A   Mostly Cloudy
5:50 PM 73 °F - 38 °F 17% 29.71 in 12 mi West 22.4 mph - -   Mostly Cloudy
6:45 PM 66.2 °F - 44.6 °F 46% 30.16 in 7.0 mi WNW 3.5 mph - N/A   Mostly Cloudy
7:47 PM 62.6 °F - 42.8 °F 48% 30.17 in 7.0 mi WNW 3.5 mph - N/A   Mostly Cloudy
8:48 PM 57.2 °F - 42.8 °F 59% 30.20 in 7.0 mi SE 5.8 mph - N/A   Mostly Cloudy
8:55 PM 65 °F - 38 °F 26% 29.70 in 12 mi SE 2.2 mph - -   Partly Cloudy
9:45 PM 55.4 °F - 42.8 °F 63% 30.22 in 6.0 mi ENE 4.6 mph - N/A   Mostly Cloudy
10:50 PM 53.6 °F - 42.8 °F 67% 30.24 in 6.0 mi ESE 4.6 mph - N/A   Mostly Cloudy
11:50 PM 53.6 °F - 42.8 °F 67% 30.24 in 6.0 mi ENE 4.6 mph - N/A   Mostly Cloudy
11:55 PM 60 °F - 41 °F 37% 29.69 in 6 mi SW 2.2 mph - -   Partly Cloudy